| time (UTC) | temp F | wind direction | speed MPH | gust MPH | rain 1hr in | rain 24hr in | rain mn in | humidity % | barometer mb |
| 20260510194534 | 61 | 61 | 5.0 | 8.0 | 0.00 | 0.00 | 0.00 | 57 | 1008.7 |
| 20260510192527 | 62 | 61 | 5.0 | 8.0 | 0.00 | 0.00 | 0.00 | 56 | 1008.7 |
| 20260510191529 | 63 | 75 | 4.0 | 8.0 | 0.00 | 0.00 | 0.00 | 55 | 1008.7 |
| 20260510190525 | 63 | 77 | 6.0 | 7.0 | 0.00 | 0.00 | 0.00 | 55 | 1008.8 |
| 20260510185527 | 64 | 66 | 6.0 | 7.0 | 0.00 | 0.00 | 0.00 | 54 | 1008.8 |
| 20260510184530 | 64 | 69 | 4.0 | 5.0 | 0.00 | 0.00 | 0.00 | 53 | 1008.8 |
| 20260510183527 | 64 | 76 | 5.0 | 6.0 | 0.00 | 0.00 | 0.00 | 53 | 1008.8 |
| 20260510182527 | 65 | 73 | 5.0 | 6.0 | 0.00 | 0.00 | 0.00 | 52 | 1008.8 |
| 20260510181530 | 65 | 122 | 2.0 | 6.0 | 0.00 | 0.00 | 0.00 | 52 | 1008.8 |
| 20260510180527 | 66 | 130 | 5.0 | 5.0 | 0.00 | 0.00 | 0.00 | 51 | 1009.3 |
| 20260510175527 | 66 | 112 | 3.0 | 5.0 | 0.00 | 0.00 | 0.00 | 51 | 1009.3 |
| 20260510173528 | 67 | 194 | 2.0 | 5.0 | 0.00 | 0.00 | 0.00 | 50 | 1009.3 |
| 20260510172528 | 67 | 199 | 1.0 | 6.0 | 0.00 | 0.00 | 0.00 | 49 | 1009.3 |
| 20260510171530 | 67 | 206 | 0.0 | 5.0 | 0.00 | 0.00 | 0.00 | 49 | 1009.3 |
| 20260510170527 | 67 | 219 | 2.0 | 8.0 | 0.00 | 0.00 | 0.00 | 49 | 1010.0 |
| 20260510165526 | 68 | 201 | 1.0 | 8.0 | 0.00 | 0.00 | 0.00 | 48 | 1010.0 |
| 20260510164529 | 68 | 271 | 2.0 | 9.0 | 0.00 | 0.00 | 0.00 | 48 | 1010.0 |
| 20260510163526 | 69 | 287 | 2.0 | 8.0 | 0.00 | 0.00 | 0.00 | 47 | 1010.0 |
| 20260510162527 | 69 | 289 | 1.0 | 9.0 | 0.00 | 0.00 | 0.00 | 47 | 1010.0 |
| 20260510161529 | 69 | 4 | 2.0 | 8.0 | 0.00 | 0.00 | 0.00 | 48 | 1010.0 |
| 20260510160528 | 69 | 285 | 2.0 | 11.0 | 0.00 | 0.00 | 0.00 | 46 | 1010.7 |
| 20260510154530 | 70 | 328 | 4.0 | 11.0 | 0.00 | 0.00 | 0.00 | 45 | 1010.7 |
| 20260510153527 | 70 | 328 | 3.0 | 13.0 | 0.00 | 0.00 | 0.00 | 45 | 1010.7 |
| 20260510152528 | 71 | 329 | 6.0 | 12.0 | 0.00 | 0.00 | 0.00 | 45 | 1010.7 |
| 20260510151529 | 71 | 293 | 5.0 | 11.0 | 0.00 | 0.00 | 0.00 | 46 | 1010.7 |
| 20260510150528 | 72 | 296 | 5.0 | 9.0 | 0.00 | 0.00 | 0.00 | 45 | 1011.5 |
| 20260510145528 | 73 | 299 | 5.0 | 10.0 | 0.00 | 0.00 | 0.00 | 45 | 1011.5 |
| 20260510144529 | 74 | 308 | 4.0 | 9.0 | 0.00 | 0.00 | 0.00 | 45 | 1011.5 |
| 20260510143527 | 73 | 300 | 5.0 | 9.0 | 0.00 | 0.00 | 0.00 | 45 | 1011.5 |
| 20260510142526 | 72 | 303 | 4.0 | 9.0 | 0.00 | 0.00 | 0.00 | 45 | 1011.5 |
| 20260510141530 | 73 | 247 | 4.0 | 9.0 | 0.00 | 0.00 | 0.00 | 46 | 1011.5 |
| 20260510135527 | 71 | 241 | 2.0 | 8.0 | 0.00 | 0.00 | 0.00 | 47 | 1012.1 |
| 20260510133527 | 72 | 174 | 2.0 | 8.0 | 0.00 | 0.00 | 0.00 | 47 | 1012.1 |
| 20260510130527 | 71 | 177 | 5.0 | 18.0 | 0.00 | 0.00 | 0.00 | 51 | 1012.7 |
| 20260510124529 | 71 | 220 | 3.0 | 16.0 | 0.00 | 0.00 | 0.00 | 50 | 1012.7 |
| 20260510123528 | 71 | 215 | 3.0 | 18.0 | 0.00 | 0.00 | 0.00 | 51 | 1012.7 |
| 20260510122528 | 72 | 220 | 4.0 | 17.0 | 0.00 | 0.00 | 0.00 | 51 | 1012.7 |
| 20260510121529 | 71 | 273 | 5.0 | 16.0 | 0.00 | 0.00 | 0.00 | 52 | 1012.7 |
| 20260510120526 | 70 | 166 | 3.0 | 14.0 | 0.00 | 0.00 | 0.00 | 53 | 1013.3 |
| 20260510115527 | 68 | 174 | 4.0 | 15.0 | 0.00 | 0.00 | 0.00 | 53 | 1013.3 |
| 20260510114529 | 69 | 200 | 4.0 | 13.0 | 0.00 | 0.00 | 0.00 | 52 | 1013.3 |
| 20260510113526 | 71 | 186 | 4.0 | 15.0 | 0.00 | 0.00 | 0.00 | 52 | 1013.3 |
| 20260510112527 | 70 | 199 | 4.0 | 14.0 | 0.00 | 0.00 | 0.00 | 54 | 1013.3 |
| 20260510111529 | 70 | 178 | 7.0 | 15.0 | 0.00 | 0.00 | 0.00 | 54 | 1013.3 |
| 20260510110529 | 69 | 160 | 7.0 | 14.0 | 0.00 | 0.00 | 0.00 | 56 | 1013.9 |
| 20260510105527 | 69 | 171 | 6.0 | 15.0 | 0.00 | 0.00 | 0.00 | 53 | 1013.9 |
| 20260510103528 | 68 | 177 | 8.0 | 13.0 | 0.00 | 0.00 | 0.00 | 56 | 1013.9 |
| 20260510102526 | 67 | 174 | 9.0 | 12.0 | 0.00 | 0.00 | 0.00 | 57 | 1013.9 |
| 20260510100527 | 65 | 154 | 9.0 | 12.0 | 0.00 | 0.00 | 0.00 | 60 | 1014.7 |
| 20260510095526 | 65 | 147 | 8.0 | 12.0 | 0.00 | 0.00 | 0.00 | 59 | 1014.7 |
| 20260510093527 | 64 | 160 | 4.0 | 12.0 | 0.00 | 0.00 | 0.00 | 61 | 1014.7 |
| 20260510092527 | 63 | 177 | 3.0 | 12.0 | 0.00 | 0.00 | 0.00 | 62 | 1014.7 |
| 20260510091529 | 63 | 179 | 4.0 | 13.0 | 0.00 | 0.00 | 0.00 | 64 | 1014.7 |
| 20260510090528 | 61 | 162 | 4.0 | 14.0 | 0.00 | 0.00 | 0.00 | 65 | 1015.1 |
| 20260510085527 | 61 | 170 | 2.0 | 14.0 | 0.00 | 0.00 | 0.00 | 65 | 1015.1 |
| 20260510082527 | 59 | 177 | 8.0 | 14.0 | 0.00 | 0.00 | 0.00 | 69 | 1015.1 |
| 20260510081530 | 58 | 159 | 10.0 | 15.0 | 0.00 | 0.00 | 0.00 | 69 | 1015.1 |
| 20260510080526 | 58 | 163 | 10.0 | 12.0 | 0.00 | 0.00 | 0.00 | 70 | 1015.7 |
| 20260510075527 | 58 | 160 | 9.0 | 10.0 | 0.00 | 0.00 | 0.00 | 71 | 1015.7 |
| 20260510074530 | 57 | 134 | 8.0 | 10.0 | 0.00 | 0.00 | 0.00 | 72 | 1015.7 |
| 20260510073528 | 56 | 141 | 8.0 | 8.0 | 0.00 | 0.00 | 0.00 | 72 | 1015.7 |
| 20260510072525 | 56 | 147 | 8.0 | 10.0 | 0.00 | 0.00 | 0.00 | 74 | 1015.7 |
| 20260510071530 | 55 | 136 | 8.0 | 10.0 | 0.00 | 0.00 | 0.00 | 75 | 1015.7 |
| 20260510070528 | 54 | 134 | 6.0 | 8.0 | 0.00 | 0.00 | 0.00 | 77 | 1016.1 |
| 20260510065526 | 54 | 145 | 7.0 | 10.0 | 0.00 | 0.00 | 0.00 | 78 | 1016.1 |
| 20260510063528 | 53 | 112 | 2.0 | 8.0 | 0.00 | 0.00 | 0.00 | 79 | 1016.1 |
| 20260510062527 | 52 | 128 | 3.0 | 8.0 | 0.00 | 0.00 | 0.00 | 79 | 1016.1 |
| 20260510061531 | 51 | 133 | 6.0 | 8.0 | 0.00 | 0.00 | 0.00 | 80 | 1016.1 |
| 20260510055525 | 50 | 136 | 5.0 | 7.0 | 0.00 | 0.00 | 0.00 | 81 | 1016.1 |
| 20260510054529 | 50 | 118 | 6.0 | 7.0 | 0.00 | 0.00 | 0.00 | 81 | 1016.1 |
| 20260510053527 | 49 | 103 | 6.0 | 8.0 | 0.00 | 0.00 | 0.00 | 82 | 1016.1 |
| 20260510051529 | 49 | 102 | 6.0 | 8.0 | 0.00 | 0.00 | 0.00 | 83 | 1016.1 |
| 20260510050528 | 48 | 100 | 6.0 | 8.0 | 0.00 | 0.00 | 0.00 | 83 | 1016.6 |
| 20260510045526 | 48 | 102 | 6.0 | 6.0 | 0.00 | 0.00 | 0.00 | 83 | 1016.6 |
| 20260510044530 | 48 | 85 | 3.0 | 6.0 | 0.00 | 0.00 | 0.00 | 83 | 1016.6 |
| 20260510043526 | 48 | 89 | 2.0 | 5.0 | 0.00 | 0.00 | 0.00 | 83 | 1016.6 |
| 20260510042528 | 48 | 77 | 3.0 | 5.0 | 0.00 | 0.00 | 0.00 | 83 | 1016.6 |
| 20260510040526 | 48 | 105 | 3.0 | 8.0 | 0.00 | 0.00 | 0.00 | 82 | 1016.6 |
| 20260510034529 | 47 | 79 | 2.0 | 8.0 | 0.00 | 0.00 | 0.00 | 82 | 1016.6 |
| 20260510033526 | 47 | 80 | 2.0 | 8.0 | 0.00 | 0.00 | 0.00 | 81 | 1016.6 |
| 20260510032527 | 48 | 71 | 2.0 | 8.0 | 0.00 | 0.00 | 0.00 | 81 | 1016.6 |
| 20260510031528 | 48 | 110 | 2.0 | 7.0 | 0.00 | 0.00 | 0.00 | 81 | 1016.6 |
| 20260510030529 | 48 | 124 | 3.0 | 7.0 | 0.00 | 0.00 | 0.00 | 80 | 1017.2 |
| 20260510025526 | 48 | 128 | 3.0 | 7.0 | 0.00 | 0.00 | 0.00 | 80 | 1017.2 |
| 20260510024528 | 48 | 130 | 4.0 | 7.0 | 0.00 | 0.00 | 0.00 | 80 | 1017.2 |
| 20260510022526 | 48 | 120 | 6.0 | 6.0 | 0.00 | 0.00 | 0.00 | 80 | 1017.2 |
| 20260510021529 | 49 | 97 | 4.0 | 8.0 | 0.00 | 0.00 | 0.00 | 80 | 1017.2 |
| 20260510020527 | 49 | 99 | 5.0 | 6.0 | 0.00 | 0.00 | 0.00 | 79 | 1017.9 |
| 20260510015527 | 49 | 110 | 6.0 | 6.0 | 0.00 | 0.00 | 0.00 | 79 | 1017.9 |
| 20260510014529 | 49 | 101 | 4.0 | 6.0 | 0.00 | 0.00 | 0.00 | 79 | 1017.9 |
| 20260510013526 | 49 | 99 | 6.0 | 6.0 | 0.00 | 0.00 | 0.00 | 79 | 1017.9 |
| 20260510004529 | 49 | 93 | 5.0 | 6.0 | 0.00 | 0.00 | 0.00 | 78 | 1018.7 |
| 20260510003527 | 50 | 106 | 6.0 | 7.0 | 0.00 | 0.00 | 0.00 | 78 | 1018.7 |
| 20260510002528 | 50 | 103 | 6.0 | 7.0 | 0.00 | 0.00 | 0.00 | 77 | 1018.7 |
| 20260510001529 | 50 | 110 | 3.0 | 4.0 | 0.00 | 0.00 | 0.00 | 77 | 1018.7 |
| 20260510000528 | 50 | 108 | 3.0 | 5.0 | 0.00 | 0.00 | 0.00 | 77 | 1019.1 |
| 20260509235538 | 50 | 92 | 4.0 | 5.0 | 0.00 | 0.00 | 0.00 | 77 | 1019.1 |
| 20260509233526 | 50 | 91 | 3.0 | 5.0 | 0.00 | 0.00 | 0.00 | 76 | 1019.1 |
| 20260509231529 | 51 | 97 | 3.0 | 5.0 | 0.00 | 0.00 | 0.00 | 75 | 1019.1 |
| 20260509230528 | 51 | 92 | 3.0 | 6.0 | 0.00 | 0.00 | 0.00 | 74 | 1019.4 |
| 20260509225526 | 51 | 100 | 3.0 | 5.0 | 0.00 | 0.00 | 0.00 | 74 | 1019.4 |
| 20260509224528 | 51 | 82 | 3.0 | 6.0 | 0.00 | 0.00 | 0.00 | 73 | 1019.4 |
| 20260509223527 | 51 | 86 | 2.0 | 6.0 | 0.00 | 0.00 | 0.00 | 73 | 1019.4 |
| 20260509221531 | 52 | 92 | 5.0 | 6.0 | 0.00 | 0.00 | 0.00 | 73 | 1019.4 |
| 20260509220528 | 52 | 92 | 4.0 | 5.0 | 0.00 | 0.00 | 0.00 | 72 | 1019.6 |
| 20260509215527 | 52 | 85 | 4.0 | 5.0 | 0.00 | 0.00 | 0.00 | 72 | 1019.6 |
| 20260509213526 | 53 | 108 | 2.0 | 5.0 | 0.00 | 0.00 | 0.00 | 71 | 1019.6 |
| 20260509212527 | 53 | 119 | 2.0 | 5.0 | 0.00 | 0.00 | 0.00 | 71 | 1019.6 |
| 20260509211530 | 53 | 90 | 2.0 | 5.0 | 0.00 | 0.00 | 0.00 | 70 | 1019.6 |
| 20260509210528 | 53 | 99 | 1.0 | 8.0 | 0.00 | 0.00 | 0.00 | 69 | 1019.3 |
| 20260509205526 | 53 | 97 | 2.0 | 9.0 | 0.00 | 0.00 | 0.00 | 69 | 1019.3 |
| 20260509204529 | 54 | 108 | 3.0 | 9.0 | 0.00 | 0.00 | 0.00 | 68 | 1019.3 |
| 20260509203527 | 54 | 112 | 5.0 | 10.0 | 0.00 | 0.00 | 0.00 | 68 | 1019.3 |
| 20260509202527 | 54 | 112 | 2.0 | 9.0 | 0.00 | 0.00 | 0.00 | 67 | 1019.3 |
| 20260509201530 | 54 | 138 | 4.0 | 9.0 | 0.00 | 0.00 | 0.00 | 67 | 1019.3 |
| 20260509200528 | 55 | 140 | 4.0 | 10.0 | 0.00 | 0.00 | 0.00 | 66 | 1019.0 |
| 20260509195526 | 55 | 124 | 4.0 | 9.0 | 0.00 | 0.00 | 0.00 | 65 | 1019.0 |